{"data":{"norad_id":64260,"epoch":"2026-09-20T08:48:27.167904Z","epoch_age_seconds":149139,"freshness":"FRESH","line1":"1 64260U 25120E   26263.36698111  .00016319  00000+0  49311-3 0  9992","line2":"2 64260  53.1592 286.6502 0001181  71.7244 288.3887 15.34397539 73755","mean_motion":15.34397539,"eccentricity":0.0001181,"inclination_deg":53.1592,"raan_deg":286.6502,"arg_perigee_deg":71.7244,"mean_anomaly_deg":288.3887,"bstar":0.00049311,"rev_number":7375,"period_min":93.847908602518,"perigee_km":461.90265073129,"apogee_km":463.51845892374,"semimajor_km":6840.8475548275,"source":"CELESTRAK","updated_at":"2026-09-21T09:00:35.282177Z"}}